Location: Abraham Lincoln Continuation High School
(33.9711°N, 117.3662°W)
Time: 14:52:23
(UTC+00:00)

Cosmos 1603 - Pass Details

Date: 21 September 2020
Orbit: 832 x 858 km, 71.0° (Epoch: 29 October)

Event Time Altitude Azimuth Distance (km) Brightness Sun altitude
Rises 02:26:55 0° 340° (NNW) 3,405 7.2 -8.9°
Reaches altitude 10° 02:29:23 10° 341° (NNW) 2,463 6.5 -9.4°
Maximum altitude 02:35:02 82° 69° (ENE) 849 3.7 -10.5°
Drops below altitude 10° 02:40:38 10° 158° (SSE) 2,435 5.8 -11.7°
Sets 02:43:03 0° 159° (SSE) 3,363 6.5 -12.2°
